Home > Weather > Corfu > Past weeks

Flag for Greece Past Weather in Corfu, Greece — Yesterday and Last 2 Weeks

Now
84 °F

Passing clouds.


Feels Like: 90 °F
Forecast: 71 / 85 °F
Wind: No wind

Location: Kerkyra Airport

Current Time: Jul 1, 2016 at 8:16:53 PM

Latest Report: Jul 1, 2016 at 7:20 PM


Visibility: N/A

Pressure: 29.95 "Hg

Humidity: 66%

Dew Point: 72 °F

Location of CorfuLocation

Past Weather in Corfu — Graph

°F

Corfu Temperature Yesterday

Maximum temperature yesterday: 86 °F (at 3:50 PM)
Minimum temperature yesterday: 68 °F (at 4:50 AM)
Average temperature yesterday: 78 °F

High & Low Weather Summary for the Past Weeks

 TemperatureHumidityPressure
High97 °F (Jun 24, 2:50 PM)100% (Jul 1, 7:50 AM)30.04 "Hg (Jul 1, 7:50 AM)
Low68 °F (Jun 17, 4:50 AM)32% (Jun 25, 11:50 AM)29.74 "Hg (Jun 25, 6:20 AM)
Average80 °F68%29.91 "Hg
* Reported Jun 16 6:20 PM — Jul 1 6:50 PM, Corfu, Weather by CustomWeather, © 2016

Note: Actual official high and low records may vary slightly from our data, if they occured in-between our weather recording intervals... More about our weather records

Advertising

Corfu Weather History for the Previous 24 Hours

Scroll right to see more
 ConditionsComfort  
Time TempWeatherWind HumidityBarometerVisibility
6:50 PM
Fri, Jul 1
84 °FPassing clouds.5 mph66%29.95 "HgN/A
5:50 PM86 °FPassing clouds.5 mph62%29.95 "HgN/A
4:50 PM86 °FPassing clouds.8 mph59%29.98 "HgN/A
4:20 PM86 °FPassing clouds.7 mph55%29.98 "HgN/A
3:50 PM84 °FPassing clouds.9 mph58%29.98 "HgN/A
3:20 PM84 °FPassing clouds.8 mph58%30.01 "HgN/A
2:50 PM84 °FPassing clouds.10 mph58%30.01 "HgN/A
2:20 PM84 °FSunny.12 mph58%30.01 "Hg10 mi
1:50 PM84 °FSunny.12 mph58%30.01 "Hg10 mi
1:20 PM82 °FSunny.6 mph70%30.01 "Hg10 mi
12:50 PM82 °FSunny.6 mph70%30.01 "Hg10 mi
12:20 PM79 °FSunny.7 mph79%30.01 "Hg10 mi
11:50 AM79 °FSunny.7 mph79%30.01 "Hg10 mi
11:20 AM81 °FPassing clouds.7 mph74%30.01 "HgN/A
10:50 AM79 °FPassing clouds.7 mph79%30.01 "HgN/A
10:20 AM77 °FPassing clouds.6 mph83%30.01 "HgN/A
9:50 AM77 °FPassing clouds.2 mph83%30.01 "HgN/A
9:20 AM77 °FScattered clouds.5 mph83%30.01 "HgN/A
8:50 AM75 °FScattered clouds.No wind83%30.01 "HgN/A
8:20 AM72 °FPassing clouds.No wind94%30.01 "HgN/A
7:50 AM70 °FPassing clouds.No wind100%30.01 "HgN/A
7:20 AM72 °FPassing clouds.3 mph88%30.01 "HgN/A
6:50 AM70 °FPassing clouds.2 mph94%30.01 "HgN/A
6:20 AM70 °FPassing clouds.No wind94%30.01 "HgN/A
5:50 AM70 °FPassing clouds.2 mph94%30.01 "HgN/A
5:20 AM70 °FPassing clouds.3 mph94%30.01 "HgN/A
4:50 AM70 °FPassing clouds.2 mph94%30.01 "HgN/A
4:20 AM70 °FPassing clouds.2 mph94%30.01 "HgN/A
3:50 AM70 °FPassing clouds.2 mph94%30.01 "HgN/A
3:20 AM70 °FPassing clouds.2 mph94%30.01 "HgN/A
2:50 AM72 °FPassing clouds.2 mph88%30.01 "HgN/A
2:20 AM72 °FPassing clouds.2 mph94%30.01 "HgN/A
1:50 AM72 °FPassing clouds.2 mph94%30.01 "HgN/A
1:20 AM72 °FPassing clouds.2 mph94%30.01 "HgN/A
12:50 AM73 °FPassing clouds.2 mph89%30.01 "HgN/A
12:20 AM73 °FPassing clouds.2 mph89%30.01 "HgN/A
11:50 PM
Thu, Jun 30
73 °FPassing clouds.2 mph89%30.01 "HgN/A
11:20 PM73 °FPassing clouds.2 mph89%30.01 "HgN/A
10:50 PM75 °FPassing clouds.3 mph83%30.01 "HgN/A
10:20 PM75 °FPassing clouds.2 mph89%29.98 "HgN/A
9:50 PM75 °FSunny.No wind83%29.98 "Hg10 mi
9:20 PM79 °FSunny.5 mph79%29.95 "Hg10 mi
8:50 PM79 °FSunny.No wind79%29.95 "Hg10 mi
8:20 PM81 °FPassing clouds.5 mph66%29.95 "HgN/A
Weather by CustomWeather, © 2016

See weather overviewHow to use our weather pages